Location: Unspecified
(0.0000°N, 0.0000°E)
Time: 21:55:53
(UTC+00:00)

Tiangong - Pass Details

Date: 26 March 2023
Orbit: 373 x 379 km, 41.5° (Epoch: 30 March)

Event Time Altitude Azimuth Distance (km) Brightness Sun altitude
Rises 19:06:15 0° 326° (NNW) 2,216 2.3 -15.1°
Reaches altitude 10° 19:08:24 10° 336° (NNW) 1,368 1.0 -15.7°
Enters shadow 19:11:14 35° 43° (NE) 625 -1.4 -16.4°
